Abilene, TX

3:34 AM CDT on September 20, 2019 (GMT -0500)
Abilene Regional

Weather History for KABI - August, 2019

Change the Weather History Date:

Sunday, August 18, 2019

  Actual Average Record
Temperature  
Mean Temperature 94 °F 83 °F  
Max Temperature 106 °F 94 °F 106 °F (2019)
Min Temperature 81 °F 72 °F 62 °F (1967)
Degree Days  
Heating Degree Days 0 0  
Month to date heating degree days 0 0  
Since 1 June heating degree days 0 1  
Since 1 July heating degree days 0 0  
Cooling Degree Days 29 18  
Month to date cooling degree days 452 336  
Year to date cooling degree days 1875 1729  
Since 1 June cooling degree days 1482 1332  
Growing Degree Days 44 (Base 50)    
Moisture  
Dew Point 62 °F    
Average Humidity 46    
Maximum Humidity 69    
Minimum Humidity 22    
Precipitation  
Precipitation 0.00 in 0.09 in 1.00 in (1910)
Month to date precipitation 0.00 1.45  
Year to date precipitation 18.80 15.82  
Sea Level Pressure  
Sea Level Pressure 29.76 in    
Wind  
Wind Speed 14 mph (South)    
Max Wind Speed 25 mph    
Max Gust Speed 31 mph    
Visibility 10 miles    
Events      
T = Trace of Precipitation, MM = Missing Value Source: NWS Daily Summary

Daily Weather History Graph

Daily Weather History Graph

Search for Another Location

Airport or City:

Astronomy

Aug. 18, 2019 Rise Set
Actual Time 7:04 AM CDT 8:20 PM CDT
Civil Twilight 6:38 AM CDT 8:45 PM CDT
Nautical Twilight 6:08 AM CDT 9:16 PM CDT
Astronomical Twilight 5:36 AM CDT 9:48 PM CDT
Moon 10:24 PM CDT (8/18) 9:43 AM CDT (8/18)
Length of Visible Light 14h 06m
Length of Day
13h 15m
Waning Gibbous, 91% of the Moon is Illuminated
Aug 18
Waning Gibbous
Aug 23
Last Quarter
Aug 30
New
Sep 5
First Quarter
Sep 13
Full

Hourly Weather History & Observations

Time (CDT) Temp. Heat Index Dew Point Humidity Pressure Visibility Wind Dir Wind Speed Gust Speed Precip Events Conditions
12:52 AM 87.1 °F 86.7 °F 60.1 °F 40% 29.76 in 10.0 mi SSE 10.4 mph - N/A   Clear
1:52 AM 84.9 °F 84.8 °F 60.1 °F 43% 29.76 in 10.0 mi SSE 9.2 mph - N/A   Clear
2:52 AM 84.9 °F 84.8 °F 60.1 °F 43% 29.75 in 10.0 mi SSE 16.1 mph - N/A   Clear
3:52 AM 84.0 °F 84.9 °F 63.0 °F 49% 29.74 in 10.0 mi South 13.8 mph - N/A   Clear
4:52 AM 82.9 °F 84.6 °F 64.9 °F 54% 29.73 in 10.0 mi South 16.1 mph - N/A   Clear
5:52 AM 82.0 °F 84.9 °F 68.0 °F 62% 29.75 in 10.0 mi South 10.4 mph - N/A   Clear
6:52 AM 81.0 °F 84.4 °F 70.0 °F 69% 29.75 in 10.0 mi South 11.5 mph - N/A   Clear
7:52 AM 81.0 °F 84.4 °F 70.0 °F 69% 29.78 in 10.0 mi South 15.0 mph 19.6 mph N/A   Clear
8:52 AM 84.0 °F 87.8 °F 69.1 °F 61% 29.79 in 10.0 mi South 16.1 mph 24.2 mph N/A   Clear
9:52 AM 88.0 °F 89.6 °F 64.9 °F 46% 29.79 in 10.0 mi SSW 17.3 mph 27.6 mph N/A   Clear
10:52 AM 91.9 °F 94.1 °F 64.9 °F 41% 29.79 in 10.0 mi SSW 21.9 mph 26.5 mph N/A   Clear
11:52 AM 95.0 °F 97.0 °F 64.0 °F 36% 29.80 in 10.0 mi SSW 16.1 mph 25.3 mph N/A   Clear
12:52 PM 99.0 °F 100.5 °F 63.0 °F 30% 29.79 in 10.0 mi SSW 17.3 mph - N/A   Clear
1:52 PM 102.0 °F 102.7 °F 60.1 °F 25% 29.78 in 10.0 mi SSW 15.0 mph 21.9 mph N/A   Clear
2:52 PM 104.0 °F 104.6 °F 59.0 °F 23% 29.77 in 10.0 mi SSE 11.5 mph - N/A   Clear
3:52 PM 104.0 °F 104.0 °F 57.9 °F 22% 29.75 in 10.0 mi SSW 6.9 mph 19.6 mph N/A   Clear
4:52 PM 104.0 °F 103.4 °F 57.0 °F 21% 29.74 in 10.0 mi SE 15.0 mph 23.0 mph N/A   Clear
5:52 PM 104.0 °F 103.4 °F 57.0 °F 21% 29.73 in 10.0 mi SSE 16.1 mph - N/A   Clear
6:52 PM 102.0 °F 101.1 °F 57.0 °F 22% 29.73 in 10.0 mi SSE 13.8 mph - N/A   Clear
7:52 PM 98.1 °F 96.8 °F 57.0 °F 25% 29.73 in 10.0 mi SE 16.1 mph - N/A   Clear
8:52 PM 93.0 °F 91.4 °F 55.9 °F 29% 29.76 in 10.0 mi SE 10.4 mph - N/A   Clear
9:52 PM 87.1 °F 85.7 °F 55.9 °F 35% 29.78 in 10.0 mi SE 10.4 mph - N/A   Clear
10:52 PM 88.0 °F 86.5 °F 55.9 °F 34% 29.80 in 10.0 mi SSE 12.7 mph - N/A   Clear
11:52 PM 88.0 °F 87.1 °F 59.0 °F 37% 29.82 in 10.0 mi SSE 15.0 mph - N/A   Clear